Three Rivers, MI

1:02 PM EST on December 07, 2016 (GMT -0500)
Three Rivers Municipal-Haines

Weather History for KHAI - May, 2014

Change the Weather History Date:

Wednesday, May 14, 2014

  Actual Average Record
Temperature  
Mean Temperature 53 °F -  
Max Temperature 56 °F 69 °F 90 °F (1982)
Min Temperature 50 °F 46 °F 30 °F (1973)
Degree Days  
Heating Degree Days 12    
Growing Degree Days 3 (Base 50)    
Moisture  
Dew Point 49 °F    
Average Humidity 88    
Maximum Humidity 97    
Minimum Humidity 71    
Precipitation  
Precipitation 0.00 in - - ()
Sea Level Pressure  
Sea Level Pressure 30.09 in    
Wind  
Wind Speed 5 mph (North)    
Max Wind Speed 17 mph    
Max Gust Speed 24 mph    
Visibility 9 miles    
Events Rain    
Averages and records for this station are not official NWS values.
T = Trace of Precipitation, MM = Missing Value Source: NWS Daily Summary

Daily Weather History Graph

Daily Weather History Graph

Search for Another Location

Airport or City:

Trip Planner

Search our weather history database for the weather conditions in past years. The results will help you decide how hot, cold, wet, or windy it might be!

Date:

Astronomy

May. 14, 2014 Rise Set
Actual Time 6:23 AM EDT 8:55 PM EDT
Civil Twilight 5:51 AM EDT 9:26 PM EDT
Nautical Twilight 5:11 AM EDT 10:06 PM EDT
Astronomical Twilight 4:27 AM EDT 10:51 PM EDT
Moon 8:59 PM EDT (5/14) 6:22 AM EDT (5/14)
Length of Visible Light 15h 35m
Length of Day
14h 32m
Full, 100% of the Moon is Illuminated
May 14
Full
May 14
Full
May 21
Last Quarter
May 28
New
Jun 5
First Quarter

Hourly Weather History & Observations

Time (EDT) Temp. Dew Point Humidity Pressure Visibility Wind Dir Wind Speed Gust Speed Precip Events Conditions
12:15 AM 54.5 °F 50.4 °F 86% 30.12 in 10.0 mi WNW 6.9 mph - N/A   Overcast
12:34 AM 54.3 °F 50.5 °F 87% 30.13 in 10.0 mi WNW 6.9 mph - N/A   Overcast
12:55 AM 54.1 °F 50.9 °F 89% 30.13 in 10.0 mi WNW 6.9 mph - N/A   Light Drizzle
1:15 AM 53.8 °F 50.9 °F 90% 30.13 in 10.0 mi WNW 5.8 mph - N/A   Light Drizzle
1:35 AM 53.8 °F 50.9 °F 90% 30.13 in 10.0 mi NW 4.6 mph - N/A   Light Drizzle
1:55 AM 53.8 °F 50.9 °F 90% 30.12 in 10.0 mi NW 4.6 mph - N/A   Overcast
2:15 AM 53.8 °F 50.9 °F 90% 30.11 in 10.0 mi NW 3.5 mph - N/A Rain Light Rain
2:35 AM 53.2 °F 50.9 °F 92% 30.12 in 10.0 mi West 3.5 mph - N/A Rain Light Rain
2:55 AM 53.1 °F 50.9 °F 92% 30.14 in 10.0 mi WSW 3.5 mph - N/A Rain Light Rain
3:14 AM 53.2 °F 51.3 °F 93% 30.12 in 10.0 mi Calm Calm - N/A Rain Light Rain
3:35 AM 53.2 °F 51.3 °F 93% 30.13 in 7.0 mi Calm Calm - N/A Rain Rain
3:55 AM 52.7 °F 51.1 °F 94% 30.14 in 7.0 mi WSW 3.5 mph - N/A Rain Light Rain
4:15 AM 52.7 °F 50.9 °F 94% 30.13 in 10.0 mi WNW 3.5 mph - N/A   Overcast
4:35 AM 53.1 °F 50.7 °F 92% 30.12 in 10.0 mi Calm Calm - N/A   Mostly Cloudy
5:15 AM 51.8 °F 49.8 °F 93% 30.13 in 10.0 mi WNW 3.5 mph - N/A   Mostly Cloudy
5:34 AM 51.6 °F 49.3 °F 92% 30.14 in 10.0 mi WNW 5.8 mph - N/A   Scattered Clouds
5:55 AM 51.3 °F 49.5 °F 94% 30.14 in 10.0 mi NNW 4.6 mph - N/A   Scattered Clouds
6:15 AM 51.4 °F 49.3 °F 92% 30.12 in 10.0 mi Calm Calm - N/A   Clear
6:35 AM 51.6 °F 49.1 °F 91% 30.12 in 10.0 mi Calm Calm - N/A   Clear
6:55 AM 51.8 °F 49.3 °F 91% 30.15 in 10.0 mi NW 8.1 mph - N/A   Clear
7:15 AM 51.8 °F 49.1 °F 90% 30.15 in 10.0 mi NNW 6.9 mph - N/A   Clear
7:35 AM 51.8 °F 48.7 °F 89% 30.14 in 10.0 mi North 3.5 mph - N/A   Clear
7:55 AM 52.2 °F 49.1 °F 89% 30.15 in 10.0 mi NNW 5.8 mph - N/A   Clear
8:15 AM 52.7 °F 49.1 °F 88% 30.15 in 10.0 mi Calm Calm - N/A   Clear
8:35 AM 52.7 °F 48.2 °F 85% 30.15 in 10.0 mi North 4.6 mph - N/A   Scattered Clouds
8:55 AM 52.9 °F 48.0 °F 84% 30.15 in 10.0 mi North 4.6 mph - N/A   Mostly Cloudy
9:14 AM 53.6 °F 48.4 °F 82% 30.15 in 10.0 mi North 4.6 mph - N/A   Scattered Clouds
9:35 AM 53.8 °F 47.8 °F 80% 30.16 in 10.0 mi North 4.6 mph - N/A   Clear
9:55 AM 54.3 °F 47.1 °F 77% 30.16 in 10.0 mi North 3.5 mph - N/A   Clear
11:15 AM 55.8 °F 46.9 °F 72% 30.15 in 10.0 mi Calm Calm - N/A   Scattered Clouds
11:35 AM 55.9 °F 47.5 °F 73% 30.15 in 10.0 mi Calm Calm - N/A   Mostly Cloudy
11:55 AM 56.3 °F 47.1 °F 71% 30.15 in 10.0 mi Calm Calm - N/A   Mostly Cloudy
12:15 PM 56.3 °F 47.3 °F 72% 30.14 in 10.0 mi NE 4.6 mph - N/A   Mostly Cloudy
12:35 PM 56.3 °F 47.3 °F 72% 30.15 in 10.0 mi Calm Calm - N/A Rain Light Rain
12:54 PM 55.6 °F 47.7 °F 75% 30.14 in 10.0 mi NE 3.5 mph - N/A Rain Light Rain
1:15 PM 55.4 °F 48.6 °F 78% 30.14 in 10.0 mi East 4.6 mph - N/A   Drizzle
1:35 PM 54.9 °F 49.8 °F 83% 30.13 in 10.0 mi East 5.8 mph - N/A Rain Light Rain
1:55 PM 54.7 °F 50.0 °F 84% 30.12 in 10.0 mi NE 3.5 mph - N/A Rain Light Rain
2:15 PM 54.3 °F 50.2 °F 86% 30.11 in 7.0 mi North 5.8 mph - N/A Rain Rain
2:35 PM 53.6 °F 50.4 °F 89% 30.10 in 5.0 mi North 4.6 mph - N/A Rain Rain
2:55 PM 53.6 °F 50.4 °F 89% 30.09 in 7.0 mi North 3.5 mph - N/A Rain Rain
3:14 PM 53.8 °F 50.7 °F 89% 30.09 in 10.0 mi North 6.9 mph - N/A Rain Light Rain
3:35 PM 53.8 °F 50.5 °F 89% 30.09 in 7.0 mi North 5.8 mph - N/A Rain Light Rain
3:55 PM 54.0 °F 51.1 °F 90% 30.07 in 7.0 mi North 10.4 mph 16.1 mph N/A Rain Light Rain
4:15 PM 53.6 °F 49.5 °F 86% 30.06 in 10.0 mi North 10.4 mph - N/A   Overcast
4:35 PM 53.8 °F 49.1 °F 84% 30.06 in 10.0 mi North 6.9 mph - N/A Rain Light Rain
4:55 PM 53.6 °F 49.5 °F 86% 30.07 in 10.0 mi North 3.5 mph - N/A Rain Rain
5:15 PM 53.2 °F 47.5 °F 81% 30.07 in 10.0 mi NNE 8.1 mph - N/A Rain Light Rain
5:35 PM 52.9 °F 47.7 °F 82% 30.06 in 10.0 mi NNE 5.8 mph - N/A Rain Rain
5:55 PM 53.1 °F 48.6 °F 85% 30.05 in 10.0 mi NE 5.8 mph - N/A Rain Light Rain
6:15 PM 52.2 °F 47.3 °F 83% 30.05 in 10.0 mi NE 9.2 mph - N/A Rain Light Rain
6:35 PM 52.0 °F 47.5 °F 85% 30.03 in 10.0 mi NE 8.1 mph - N/A   Drizzle
6:54 PM 52.0 °F 48.2 °F 87% 30.03 in 10.0 mi NNE 5.8 mph - N/A Rain Rain
7:15 PM 52.0 °F 48.4 °F 88% 30.02 in 10.0 mi North 5.8 mph - N/A Rain Light Rain
7:55 PM 51.8 °F 48.2 °F 88% 30.01 in 10.0 mi North 5.8 mph - N/A Rain Rain
8:15 PM 51.1 °F 48.6 °F 91% 30.01 in 7.0 mi North 5.8 mph - N/A Rain Rain
8:34 PM 50.9 °F 49.1 °F 94% 30.00 in 5.0 mi North 6.9 mph - N/A Rain Rain
8:55 PM 50.9 °F 49.3 °F 94% 30.01 in 5.0 mi North 10.4 mph - N/A Rain Rain
9:15 PM 50.9 °F 49.6 °F 95% 30.00 in 5.0 mi North 8.1 mph - N/A Rain Heavy Rain
9:35 PM 50.9 °F 50.0 °F 97% 30.01 in 5.0 mi NNW 8.1 mph - N/A Rain Heavy Rain
9:55 PM 50.9 °F 50.0 °F 97% 30.02 in 7.0 mi North 10.4 mph - N/A Rain Rain
10:15 PM 51.1 °F 49.8 °F 95% 30.00 in 5.0 mi North 9.2 mph 17.3 mph N/A Rain Heavy Rain
10:35 PM 50.9 °F 50.0 °F 97% 29.99 in 5.0 mi North 6.9 mph 16.1 mph N/A Rain Heavy Rain
10:55 PM 51.1 °F 50.0 °F 96% 29.97 in 5.0 mi NNE 10.4 mph - N/A Rain Heavy Rain
11:15 PM 51.1 °F 50.0 °F 96% 29.97 in 7.0 mi NE 12.7 mph - N/A Rain Rain
11:35 PM 50.9 °F 49.3 °F 94% 29.92 in 7.0 mi NE 17.3 mph 21.9 mph N/A Rain Rain
11:55 PM 50.9 °F 49.3 °F 94% 29.90 in 7.0 mi NE 16.1 mph 24.2 mph N/A Rain Light Rain